Year,Month,Day,Hour,Minute,Value (Times are PST for temperature in C)
2010,10,29,00,00,7.90
2010,10,29,00,01,7.90
2010,10,29,00,02,7.90
2010,10,29,00,03,7.90
2010,10,29,00,04,7.80
2010,10,29,00,05,7.80
2010,10,29,00,06,7.80
2010,10,29,00,07,7.80
2010,10,29,00,08,7.70
2010,10,29,00,09,7.70
2010,10,29,00,10,7.70
2010,10,29,00,11,7.70
2010,10,29,00,12,7.70
2010,10,29,00,13,7.70
2010,10,29,00,14,7.70
2010,10,29,00,15,7.70
2010,10,29,00,16,7.70
2010,10,29,00,17,7.80
2010,10,29,00,18,7.80
2010,10,29,00,19,7.80
2010,10,29,00,20,7.80
2010,10,29,00,21,7.80
2010,10,29,00,22,7.80
2010,10,29,00,23,7.80
2010,10,29,00,24,7.80
2010,10,29,00,25,7.80
2010,10,29,00,26,7.80
2010,10,29,00,27,7.90
2010,10,29,00,28,7.90
2010,10,29,00,29,7.90
2010,10,29,00,30,7.90
2010,10,29,00,31,7.90
2010,10,29,00,32,7.90
2010,10,29,00,33,7.80
2010,10,29,00,34,7.80
2010,10,29,00,35,7.90
2010,10,29,00,36,7.90
2010,10,29,00,37,7.90
2010,10,29,00,38,7.90
2010,10,29,00,39,7.90
2010,10,29,00,40,7.90
2010,10,29,00,41,7.80
2010,10,29,00,42,7.80
2010,10,29,00,43,7.90
2010,10,29,00,44,7.90
2010,10,29,00,45,7.90
2010,10,29,00,46,7.90
2010,10,29,00,47,8.00
2010,10,29,00,48,8.00
2010,10,29,00,49,8.10
2010,10,29,00,50,8.10
2010,10,29,00,51,8.10
2010,10,29,00,52,8.10
2010,10,29,00,53,8.10
2010,10,29,00,54,8.20
2010,10,29,00,55,8.20
2010,10,29,00,56,8.20
2010,10,29,00,57,8.20
2010,10,29,00,58,8.30
2010,10,29,00,59,8.30
2010,10,29,01,00,8.30
2010,10,29,01,01,8.40
2010,10,29,01,02,8.40
2010,10,29,01,03,8.40
2010,10,29,01,04,8.40
2010,10,29,01,05,8.40
2010,10,29,01,06,8.40
2010,10,29,01,07,8.40
2010,10,29,01,08,8.40
2010,10,29,01,09,8.40
2010,10,29,01,10,8.40
2010,10,29,01,11,8.30
2010,10,29,01,12,8.30
2010,10,29,01,13,8.30
2010,10,29,01,14,8.30
2010,10,29,01,15,8.30
2010,10,29,01,16,8.30
2010,10,29,01,17,8.30
2010,10,29,01,18,8.30
2010,10,29,01,19,8.30
2010,10,29,01,20,8.30
2010,10,29,01,21,8.30
2010,10,29,01,22,8.30
2010,10,29,01,23,8.30
2010,10,29,01,24,8.30
2010,10,29,01,25,8.30
2010,10,29,01,26,8.30
2010,10,29,01,27,8.30
2010,10,29,01,28,8.30
2010,10,29,01,29,8.30
2010,10,29,01,30,8.30
2010,10,29,01,31,8.30
2010,10,29,01,32,8.30
2010,10,29,01,33,8.20
2010,10,29,01,34,8.20
2010,10,29,01,35,8.20
2010,10,29,01,36,8.20
2010,10,29,01,37,8.20
2010,10,29,01,38,8.20
2010,10,29,01,39,8.20
2010,10,29,01,40,8.20
2010,10,29,01,41,8.10
2010,10,29,01,42,8.10
2010,10,29,01,43,8.10
2010,10,29,01,44,8.10
2010,10,29,01,45,8.10
2010,10,29,01,46,8.10
2010,10,29,01,47,8.10
2010,10,29,01,48,8.00
2010,10,29,01,49,8.00
2010,10,29,01,50,8.00
2010,10,29,01,51,7.90
2010,10,29,01,52,7.90
2010,10,29,01,53,7.90
2010,10,29,01,54,7.90
2010,10,29,01,55,7.90
2010,10,29,01,56,7.80
2010,10,29,01,57,7.80
2010,10,29,01,58,7.80
2010,10,29,01,59,7.80
2010,10,29,02,00,7.80
2010,10,29,02,01,7.70
2010,10,29,02,02,7.70
2010,10,29,02,03,7.70
2010,10,29,02,04,7.70
2010,10,29,02,05,7.60
2010,10,29,02,06,7.60
2010,10,29,02,07,7.60
2010,10,29,02,08,7.60
2010,10,29,02,09,7.50
2010,10,29,02,10,7.50
2010,10,29,02,11,7.50
2010,10,29,02,12,7.40
2010,10,29,02,13,7.40
2010,10,29,02,14,7.40
2010,10,29,02,15,7.40
2010,10,29,02,16,7.40
2010,10,29,02,17,7.30
2010,10,29,02,18,7.30
2010,10,29,02,19,7.30
2010,10,29,02,20,7.30
2010,10,29,02,21,7.30
2010,10,29,02,22,7.30
2010,10,29,02,23,7.30
2010,10,29,02,24,7.20
2010,10,29,02,25,7.20
2010,10,29,02,26,7.20
2010,10,29,02,27,7.20
2010,10,29,02,28,7.20
2010,10,29,02,29,7.20
2010,10,29,02,30,7.20
2010,10,29,02,31,7.20
2010,10,29,02,32,7.20
2010,10,29,02,33,7.20
2010,10,29,02,34,7.10
2010,10,29,02,35,7.10
2010,10,29,02,36,7.10
2010,10,29,02,37,7.10
2010,10,29,02,38,7.10
2010,10,29,02,39,7.10
2010,10,29,02,40,7.10
2010,10,29,02,41,7.00
2010,10,29,02,42,7.00
2010,10,29,02,43,7.10
2010,10,29,02,44,7.10
2010,10,29,02,45,7.10
2010,10,29,02,46,7.10
2010,10,29,02,47,7.10
2010,10,29,02,48,7.10
2010,10,29,02,49,7.10
2010,10,29,02,50,7.10
2010,10,29,02,51,7.10
2010,10,29,02,52,7.10
2010,10,29,02,53,7.10
2010,10,29,02,54,7.10
2010,10,29,02,55,7.10
2010,10,29,02,56,7.10
2010,10,29,02,57,7.10
2010,10,29,02,58,7.10
2010,10,29,02,59,7.10
2010,10,29,03,00,7.10
2010,10,29,03,01,7.10
2010,10,29,03,02,7.10
2010,10,29,03,03,7.10
2010,10,29,03,04,7.20
2010,10,29,03,05,7.20
2010,10,29,03,06,7.20
2010,10,29,03,07,7.20
2010,10,29,03,08,7.20
2010,10,29,03,09,7.20
2010,10,29,03,10,7.20
2010,10,29,03,11,7.20
2010,10,29,03,12,7.20
2010,10,29,03,13,7.20
2010,10,29,03,14,7.20
2010,10,29,03,15,7.20
2010,10,29,03,16,7.20
2010,10,29,03,17,7.20
2010,10,29,03,18,7.20
2010,10,29,03,19,7.20
2010,10,29,03,20,7.20
2010,10,29,03,21,7.30
2010,10,29,03,22,7.30
2010,10,29,03,23,7.30
2010,10,29,03,24,7.30
2010,10,29,03,25,7.30
2010,10,29,03,26,7.30
2010,10,29,03,27,7.30
2010,10,29,03,28,7.30
2010,10,29,03,29,7.30
2010,10,29,03,30,7.30
2010,10,29,03,31,7.30
2010,10,29,03,32,7.30
2010,10,29,03,33,7.30
2010,10,29,03,34,7.30
2010,10,29,03,35,7.30
2010,10,29,03,36,7.30
2010,10,29,03,37,7.30
2010,10,29,03,38,7.30
2010,10,29,03,39,7.30
2010,10,29,03,40,7.30
2010,10,29,03,41,7.30
2010,10,29,03,42,7.30
2010,10,29,03,43,7.30
2010,10,29,03,44,7.30
2010,10,29,03,45,7.30
2010,10,29,03,46,7.30
2010,10,29,03,47,7.30
2010,10,29,03,48,7.30
2010,10,29,03,49,7.30
2010,10,29,03,50,7.30
2010,10,29,03,51,7.30
2010,10,29,03,52,7.30
2010,10,29,03,53,7.30
2010,10,29,03,54,7.30
2010,10,29,03,55,7.30
2010,10,29,03,56,7.30
2010,10,29,03,57,7.30
2010,10,29,03,58,7.30
2010,10,29,03,59,7.30
2010,10,29,04,00,7.30
2010,10,29,04,01,7.20
2010,10,29,04,02,7.20
2010,10,29,04,03,7.20
2010,10,29,04,04,7.20
2010,10,29,04,05,7.20
2010,10,29,04,06,7.20
2010,10,29,04,07,7.20
2010,10,29,04,08,7.20
2010,10,29,04,09,7.20
2010,10,29,04,10,7.20
2010,10,29,04,11,7.20
2010,10,29,04,12,7.20
2010,10,29,04,13,7.20
2010,10,29,04,14,7.20
2010,10,29,04,15,7.20
2010,10,29,04,16,7.20
2010,10,29,04,17,7.20
2010,10,29,04,18,7.20
2010,10,29,04,19,7.20
2010,10,29,04,20,7.20
2010,10,29,04,21,7.20
2010,10,29,04,22,7.20
2010,10,29,04,23,7.10
2010,10,29,04,24,7.10
2010,10,29,04,25,7.20
2010,10,29,04,26,7.20
2010,10,29,04,27,7.20
2010,10,29,04,28,7.20
2010,10,29,04,29,7.20
2010,10,29,04,30,7.20
2010,10,29,04,31,7.20
2010,10,29,04,32,7.20
2010,10,29,04,33,7.20
2010,10,29,04,34,7.20
2010,10,29,04,35,7.20
2010,10,29,04,36,7.20
2010,10,29,04,37,7.20
2010,10,29,04,38,7.20
2010,10,29,04,39,7.20
2010,10,29,04,40,7.20
2010,10,29,04,41,7.20
2010,10,29,04,42,7.20
2010,10,29,04,43,7.20
2010,10,29,04,44,7.20
2010,10,29,04,45,7.20
2010,10,29,04,46,7.20
2010,10,29,04,47,7.20
2010,10,29,04,48,7.20
2010,10,29,04,49,7.20
2010,10,29,04,50,7.20
2010,10,29,04,51,7.20
2010,10,29,04,52,7.20
2010,10,29,04,53,7.20
2010,10,29,04,54,7.20
2010,10,29,04,55,7.20
2010,10,29,04,56,7.20
2010,10,29,04,57,7.20
2010,10,29,04,58,7.20
2010,10,29,04,59,7.20
2010,10,29,05,00,7.20
2010,10,29,05,01,7.20
2010,10,29,05,02,7.20
2010,10,29,05,03,7.20
2010,10,29,05,04,7.20
2010,10,29,05,05,7.20
2010,10,29,05,06,7.20
2010,10,29,05,07,7.20
2010,10,29,05,08,7.20
2010,10,29,05,09,7.20
2010,10,29,05,10,7.20
2010,10,29,05,11,7.20
2010,10,29,05,12,7.20
2010,10,29,05,13,7.20
2010,10,29,05,14,7.20
2010,10,29,05,15,7.20
2010,10,29,05,16,7.20
2010,10,29,05,17,7.10
2010,10,29,05,18,7.10
2010,10,29,05,19,7.00
2010,10,29,05,20,7.00
2010,10,29,05,21,7.00
2010,10,29,05,22,6.90
2010,10,29,05,23,6.90
2010,10,29,05,24,6.90
2010,10,29,05,25,6.90
2010,10,29,05,26,6.90
2010,10,29,05,27,6.90
2010,10,29,05,28,6.90
2010,10,29,05,29,6.90
2010,10,29,05,30,6.90
2010,10,29,05,31,6.90
2010,10,29,05,32,6.90
2010,10,29,05,33,7.00
2010,10,29,05,34,7.10
2010,10,29,05,35,7.10
2010,10,29,05,36,7.00
2010,10,29,05,37,7.00
2010,10,29,05,38,6.90
2010,10,29,05,39,6.90
2010,10,29,05,40,6.90
2010,10,29,05,41,6.80
2010,10,29,05,42,6.80
2010,10,29,05,43,6.80
2010,10,29,05,44,6.80
2010,10,29,05,45,6.70
2010,10,29,05,46,6.70
2010,10,29,05,47,6.70
2010,10,29,05,48,6.70
2010,10,29,05,49,6.70
2010,10,29,05,50,6.70
2010,10,29,05,51,6.60
2010,10,29,05,52,6.60
2010,10,29,05,53,6.50
2010,10,29,05,54,6.50
2010,10,29,05,55,6.40
2010,10,29,05,56,6.40
2010,10,29,05,57,6.40
2010,10,29,05,58,6.40
2010,10,29,05,59,6.40
2010,10,29,06,00,6.40
2010,10,29,06,01,6.30
2010,10,29,06,02,6.20
2010,10,29,06,03,6.20
2010,10,29,06,04,6.20
2010,10,29,06,05,6.20
2010,10,29,06,06,6.20
2010,10,29,06,07,6.10
2010,10,29,06,08,6.10
2010,10,29,06,09,6.10
2010,10,29,06,10,6.00
2010,10,29,06,11,6.00
2010,10,29,06,12,5.90
2010,10,29,06,13,5.90
2010,10,29,06,14,5.90
2010,10,29,06,15,5.90
2010,10,29,06,16,5.80
2010,10,29,06,17,5.80
2010,10,29,06,18,5.80
2010,10,29,06,19,5.80
2010,10,29,06,20,5.70
2010,10,29,06,21,5.70
2010,10,29,06,22,5.70
2010,10,29,06,23,5.70
2010,10,29,06,24,5.60
2010,10,29,06,25,5.60
2010,10,29,06,26,5.60
2010,10,29,06,27,5.60
2010,10,29,06,28,5.60
2010,10,29,06,29,5.60
2010,10,29,06,30,5.50
2010,10,29,06,31,5.50
2010,10,29,06,32,5.50
2010,10,29,06,33,5.50
2010,10,29,06,34,5.40
2010,10,29,06,35,5.40
2010,10,29,06,36,5.30
2010,10,29,06,37,5.30
2010,10,29,06,38,5.30
2010,10,29,06,39,5.30
2010,10,29,06,40,5.30
2010,10,29,06,41,5.30
2010,10,29,06,42,5.30
2010,10,29,06,43,5.30
2010,10,29,06,44,5.30
2010,10,29,06,45,5.30
2010,10,29,06,46,5.30
2010,10,29,06,47,5.30
2010,10,29,06,48,5.40
2010,10,29,06,49,5.40
2010,10,29,06,50,5.40
2010,10,29,06,51,5.40
2010,10,29,06,52,5.40
2010,10,29,06,53,5.40
2010,10,29,06,54,5.40
2010,10,29,06,55,5.30
2010,10,29,06,56,5.30
2010,10,29,06,57,5.20
2010,10,29,06,58,5.20
2010,10,29,06,59,5.20
2010,10,29,07,00,5.20
2010,10,29,07,01,5.20
2010,10,29,07,02,5.30
2010,10,29,07,03,5.30
2010,10,29,07,04,5.40
2010,10,29,07,05,5.40
2010,10,29,07,06,5.40
2010,10,29,07,07,5.40
2010,10,29,07,08,5.40
2010,10,29,07,09,5.50
2010,10,29,07,10,5.40
2010,10,29,07,11,5.40
2010,10,29,07,12,5.40
2010,10,29,07,13,5.40
2010,10,29,07,14,5.30
2010,10,29,07,15,5.30
2010,10,29,07,16,5.30
2010,10,29,07,17,5.30
2010,10,29,07,18,5.20
2010,10,29,07,19,5.20
2010,10,29,07,20,5.20
2010,10,29,07,21,5.10
2010,10,29,07,22,5.10
2010,10,29,07,23,5.10
2010,10,29,07,24,5.10
2010,10,29,07,25,5.10
2010,10,29,07,26,5.10
2010,10,29,07,27,5.10
2010,10,29,07,28,5.10
2010,10,29,07,29,5.00
2010,10,29,07,30,5.00
2010,10,29,07,31,5.00
2010,10,29,07,32,5.00
2010,10,29,07,33,4.90
2010,10,29,07,34,4.90
2010,10,29,07,35,4.90
2010,10,29,07,36,4.90
2010,10,29,07,37,4.90
2010,10,29,07,38,4.90
2010,10,29,07,39,4.80
2010,10,29,07,40,4.80
2010,10,29,07,41,4.80
2010,10,29,07,42,4.80
2010,10,29,07,43,4.80
2010,10,29,07,44,4.80
2010,10,29,07,45,4.70
2010,10,29,07,46,4.70
2010,10,29,07,47,4.70
2010,10,29,07,48,4.70
2010,10,29,07,49,4.70
2010,10,29,07,50,4.70
2010,10,29,07,51,4.70
2010,10,29,07,52,4.60
2010,10,29,07,53,4.60
2010,10,29,07,54,4.60
2010,10,29,07,55,4.60
2010,10,29,07,56,4.50
2010,10,29,07,57,4.50
2010,10,29,07,58,4.50
2010,10,29,07,59,4.50
2010,10,29,08,00,4.50
2010,10,29,08,01,4.40
2010,10,29,08,02,4.40
2010,10,29,08,03,4.40
2010,10,29,08,04,4.40
2010,10,29,08,05,4.40
2010,10,29,08,06,4.40
2010,10,29,08,07,4.30
2010,10,29,08,08,4.30
2010,10,29,08,09,4.30
2010,10,29,08,10,4.30
2010,10,29,08,11,4.30
2010,10,29,08,12,4.30
2010,10,29,08,13,4.30
2010,10,29,08,14,4.30
2010,10,29,08,15,4.30
2010,10,29,08,16,4.30
2010,10,29,08,17,4.30
2010,10,29,08,18,4.40
2010,10,29,08,19,4.50
2010,10,29,08,20,4.50
2010,10,29,08,21,4.60
2010,10,29,08,22,4.60
2010,10,29,08,23,4.60
2010,10,29,08,24,4.70
2010,10,29,08,25,4.70
2010,10,29,08,26,4.70
2010,10,29,08,27,4.70
2010,10,29,08,28,4.80
2010,10,29,08,29,4.80
2010,10,29,08,30,4.80
2010,10,29,08,31,4.90
2010,10,29,08,32,5.00
2010,10,29,08,33,5.10
2010,10,29,08,34,5.20
2010,10,29,08,35,5.30
2010,10,29,08,36,5.30
2010,10,29,08,37,5.40
2010,10,29,08,38,5.40
2010,10,29,08,39,5.50
2010,10,29,08,40,5.50
2010,10,29,08,41,5.50
2010,10,29,08,42,5.50
2010,10,29,08,43,5.50
2010,10,29,08,44,5.50
2010,10,29,08,45,5.50
2010,10,29,08,46,5.50
2010,10,29,08,47,5.50
2010,10,29,08,48,5.50
2010,10,29,08,49,5.60
2010,10,29,08,50,5.60
2010,10,29,08,51,5.60
2010,10,29,08,52,5.70
2010,10,29,08,53,5.70
2010,10,29,08,54,5.70
2010,10,29,08,55,5.70
2010,10,29,08,56,5.80
2010,10,29,08,57,5.80
2010,10,29,08,58,5.80
2010,10,29,08,59,5.80
2010,10,29,09,00,5.90
2010,10,29,09,01,5.90
2010,10,29,09,02,5.90
2010,10,29,09,03,5.90
2010,10,29,09,04,6.00
2010,10,29,09,05,6.00
2010,10,29,09,06,6.10
2010,10,29,09,07,6.10
2010,10,29,09,08,6.20
2010,10,29,09,09,6.20
2010,10,29,09,10,6.20
2010,10,29,09,11,6.30
2010,10,29,09,12,6.30
2010,10,29,09,13,6.30
2010,10,29,09,14,6.40
2010,10,29,09,15,6.50
2010,10,29,09,16,6.60
2010,10,29,09,17,6.60
2010,10,29,09,18,6.70
2010,10,29,09,19,6.70
2010,10,29,09,20,6.80
2010,10,29,09,21,6.90
2010,10,29,09,22,6.90
2010,10,29,09,23,7.00
2010,10,29,09,24,7.00
2010,10,29,09,25,7.00
2010,10,29,09,26,7.00
2010,10,29,09,27,6.90
2010,10,29,09,28,6.90
2010,10,29,09,29,6.90
2010,10,29,09,30,6.90
2010,10,29,09,31,6.90
2010,10,29,09,32,7.00
2010,10,29,09,33,7.10
2010,10,29,09,34,7.10
2010,10,29,09,35,7.20
2010,10,29,09,36,7.20
2010,10,29,09,37,7.30
2010,10,29,09,38,7.40
2010,10,29,09,39,7.50
2010,10,29,09,40,7.60
2010,10,29,09,41,7.60
2010,10,29,09,42,7.80
2010,10,29,09,43,7.80
2010,10,29,09,44,7.90
2010,10,29,09,45,7.90
2010,10,29,09,46,7.90
2010,10,29,09,47,8.00
2010,10,29,09,48,8.00
2010,10,29,09,49,8.00
2010,10,29,09,50,8.00
2010,10,29,09,51,8.00
2010,10,29,09,52,8.10
2010,10,29,09,53,8.10
2010,10,29,09,54,8.10
2010,10,29,09,55,8.10
2010,10,29,09,56,8.10
2010,10,29,09,57,8.10
2010,10,29,09,58,8.20
2010,10,29,09,59,8.20
2010,10,29,10,00,8.20
2010,10,29,10,01,8.20
2010,10,29,10,02,8.30
2010,10,29,10,03,8.30
2010,10,29,10,04,8.30
2010,10,29,10,05,8.40
2010,10,29,10,06,8.40
2010,10,29,10,07,8.50
2010,10,29,10,08,8.50
2010,10,29,10,09,8.60
2010,10,29,10,10,8.60
2010,10,29,10,11,8.60
2010,10,29,10,12,8.70
2010,10,29,10,13,8.70
2010,10,29,10,14,8.70
2010,10,29,10,15,8.80
2010,10,29,10,16,8.80
2010,10,29,10,17,8.80
2010,10,29,10,18,8.80
2010,10,29,10,19,8.90
2010,10,29,10,20,8.90
2010,10,29,10,21,8.90
2010,10,29,10,22,8.90
2010,10,29,10,23,8.90
2010,10,29,10,24,8.90
2010,10,29,10,25,8.90
2010,10,29,10,26,9.00
2010,10,29,10,27,9.00
2010,10,29,10,28,9.00
2010,10,29,10,29,9.00
2010,10,29,10,30,9.00
2010,10,29,10,31,9.10
2010,10,29,10,32,9.10
2010,10,29,10,33,9.10
2010,10,29,10,34,9.10
2010,10,29,10,35,9.10
2010,10,29,10,36,9.10
2010,10,29,10,37,9.20
2010,10,29,10,38,9.20
2010,10,29,10,39,9.20
2010,10,29,10,40,9.20
2010,10,29,10,41,9.30
2010,10,29,10,42,9.30
2010,10,29,10,43,9.30
2010,10,29,10,44,9.30
2010,10,29,10,45,9.40
2010,10,29,10,46,9.40
2010,10,29,10,47,9.40
2010,10,29,10,48,9.50
2010,10,29,10,49,9.50
2010,10,29,10,50,9.60
2010,10,29,10,51,9.60
2010,10,29,10,52,9.60
2010,10,29,10,53,9.60
2010,10,29,10,54,9.60
2010,10,29,10,55,9.70
2010,10,29,10,56,9.70
2010,10,29,10,57,9.70
2010,10,29,10,58,9.80
2010,10,29,10,59,9.90
2010,10,29,11,00,10.00
2010,10,29,11,01,10.10
2010,10,29,11,02,10.10
2010,10,29,11,03,10.20
2010,10,29,11,04,10.30
2010,10,29,11,05,10.30
2010,10,29,11,06,10.40
2010,10,29,11,07,10.50
2010,10,29,11,08,10.50
2010,10,29,11,09,10.60
2010,10,29,11,10,10.60
2010,10,29,11,11,10.60
2010,10,29,11,12,10.60
2010,10,29,11,13,10.60
2010,10,29,11,14,10.60
2010,10,29,11,15,10.60
2010,10,29,11,16,10.60
2010,10,29,11,17,10.60
2010,10,29,11,18,10.60
2010,10,29,11,19,10.60
2010,10,29,11,20,10.60
2010,10,29,11,21,10.60
2010,10,29,11,22,10.60
2010,10,29,11,23,10.60
2010,10,29,11,24,10.60
2010,10,29,11,25,10.50
2010,10,29,11,26,10.50
2010,10,29,11,27,10.60
2010,10,29,11,28,10.60
2010,10,29,11,29,10.60
2010,10,29,11,30,10.60
2010,10,29,11,31,10.60
2010,10,29,11,32,10.60
2010,10,29,11,33,10.60
2010,10,29,11,34,10.70
2010,10,29,11,35,10.70
2010,10,29,11,36,10.70
2010,10,29,11,37,10.70
2010,10,29,11,38,10.80
2010,10,29,11,39,10.80
2010,10,29,11,40,10.80
2010,10,29,11,41,10.80
2010,10,29,11,42,10.80
2010,10,29,11,43,10.90
2010,10,29,11,44,10.90
2010,10,29,11,45,10.90
2010,10,29,11,46,10.90
2010,10,29,11,47,10.90
2010,10,29,11,48,10.90
2010,10,29,11,49,10.90
2010,10,29,11,50,11.00
2010,10,29,11,51,10.90
2010,10,29,11,52,10.90
2010,10,29,11,53,10.90
2010,10,29,11,54,11.00
2010,10,29,11,55,11.00
2010,10,29,11,56,11.00
2010,10,29,11,57,11.10
2010,10,29,11,58,11.10
2010,10,29,11,59,11.10
2010,10,29,12,00,11.10
2010,10,29,12,01,11.10
2010,10,29,12,02,11.10
2010,10,29,12,03,11.20
2010,10,29,12,04,11.20
2010,10,29,12,05,11.20
2010,10,29,12,06,11.30
2010,10,29,12,07,11.30
2010,10,29,12,08,11.30
2010,10,29,12,09,11.40
2010,10,29,12,10,11.40
2010,10,29,12,11,11.40
2010,10,29,12,12,11.40
2010,10,29,12,13,11.40
2010,10,29,12,14,11.40
2010,10,29,12,15,11.40
2010,10,29,12,16,11.40
2010,10,29,12,17,11.40
2010,10,29,12,18,11.50
2010,10,29,12,19,11.50
2010,10,29,12,20,11.60
2010,10,29,12,21,11.60
2010,10,29,12,22,11.60
2010,10,29,12,23,11.70
2010,10,29,12,24,11.60
2010,10,29,12,25,11.70
2010,10,29,12,26,11.70
2010,10,29,12,27,11.80
2010,10,29,12,28,11.80
2010,10,29,12,29,11.80
2010,10,29,12,30,11.90
2010,10,29,12,31,11.90
2010,10,29,12,32,11.90
2010,10,29,12,33,11.90
2010,10,29,12,34,11.90
2010,10,29,12,35,12.00
2010,10,29,12,36,12.00
2010,10,29,12,37,12.10
2010,10,29,12,38,12.10
2010,10,29,12,39,12.10
2010,10,29,12,40,12.10
2010,10,29,12,41,12.10
2010,10,29,12,42,12.10
2010,10,29,12,43,12.10
2010,10,29,12,44,12.20
2010,10,29,12,45,12.20
2010,10,29,12,46,12.30
2010,10,29,12,47,12.20
2010,10,29,12,48,12.20
2010,10,29,12,49,12.20
2010,10,29,12,50,12.30
2010,10,29,12,51,12.30
2010,10,29,12,52,12.30
2010,10,29,12,53,12.30
2010,10,29,12,54,12.30
2010,10,29,12,55,12.30
2010,10,29,12,56,12.40
2010,10,29,12,57,12.40
2010,10,29,12,58,12.30
2010,10,29,12,59,12.30
2010,10,29,13,00,12.30
2010,10,29,13,01,12.30
2010,10,29,13,02,12.30
2010,10,29,13,03,12.30
2010,10,29,13,04,12.40
2010,10,29,13,05,12.40
2010,10,29,13,06,12.40
2010,10,29,13,07,12.40
2010,10,29,13,08,12.40
2010,10,29,13,09,12.40
2010,10,29,13,10,12.40
2010,10,29,13,11,12.40
2010,10,29,13,12,12.40
2010,10,29,13,13,12.40
2010,10,29,13,14,12.40
2010,10,29,13,15,12.40
2010,10,29,13,16,12.40
2010,10,29,13,17,12.30
2010,10,29,13,18,12.20
2010,10,29,13,19,12.10
2010,10,29,13,20,12.00
2010,10,29,13,21,11.90
2010,10,29,13,22,11.80
2010,10,29,13,23,11.80
2010,10,29,13,24,11.80
2010,10,29,13,25,11.80
2010,10,29,13,26,11.80
2010,10,29,13,27,11.70
2010,10,29,13,28,11.70
2010,10,29,13,29,11.80
2010,10,29,13,30,11.80
2010,10,29,13,31,11.80
2010,10,29,13,32,11.80
2010,10,29,13,33,11.80
2010,10,29,13,34,11.80
2010,10,29,13,35,11.80
2010,10,29,13,36,11.80
2010,10,29,13,37,11.80
2010,10,29,13,38,11.80
2010,10,29,13,39,11.90
2010,10,29,13,40,11.90
2010,10,29,13,41,11.90
2010,10,29,13,42,11.80
2010,10,29,13,43,11.80
2010,10,29,13,44,11.80
2010,10,29,13,45,11.80
2010,10,29,13,46,11.90
2010,10,29,13,47,12.00
2010,10,29,13,48,12.00
2010,10,29,13,49,12.00
2010,10,29,13,50,12.00
2010,10,29,13,51,12.00
2010,10,29,13,52,12.00
2010,10,29,13,53,12.10
2010,10,29,13,54,12.10
2010,10,29,13,55,12.10
2010,10,29,13,56,12.20
2010,10,29,13,57,12.20
2010,10,29,13,58,12.30
2010,10,29,13,59,12.40
2010,10,29,14,00,12.40
2010,10,29,14,01,12.50
2010,10,29,14,02,12.60
2010,10,29,14,03,12.60
2010,10,29,14,04,12.60
2010,10,29,14,05,12.60
2010,10,29,14,06,12.60
2010,10,29,14,07,12.70
2010,10,29,14,08,12.60
2010,10,29,14,09,12.50
2010,10,29,14,10,12.40
2010,10,29,14,11,12.30
2010,10,29,14,12,12.30
2010,10,29,14,13,12.20
2010,10,29,14,14,12.20
2010,10,29,14,15,12.20
2010,10,29,14,16,12.20
2010,10,29,14,17,12.20
2010,10,29,14,18,12.30
2010,10,29,14,19,12.20
2010,10,29,14,20,12.20
2010,10,29,14,21,12.20
2010,10,29,14,22,12.20
2010,10,29,14,23,12.20
2010,10,29,14,24,12.30
2010,10,29,14,25,12.20
2010,10,29,14,26,12.30
2010,10,29,14,27,12.30
2010,10,29,14,28,12.30
2010,10,29,14,29,12.30
2010,10,29,14,30,12.30
2010,10,29,14,31,12.30
2010,10,29,14,32,12.30
2010,10,29,14,33,12.30
2010,10,29,14,34,12.30
2010,10,29,14,35,12.30
2010,10,29,14,36,12.30
2010,10,29,14,37,12.30
2010,10,29,14,38,12.30
2010,10,29,14,39,12.30
2010,10,29,14,40,12.30
2010,10,29,14,41,12.30
2010,10,29,14,42,12.30
2010,10,29,14,43,12.30
2010,10,29,14,44,12.30
2010,10,29,14,45,12.20
2010,10,29,14,46,12.20
2010,10,29,14,47,12.30
2010,10,29,14,48,12.30
2010,10,29,14,49,12.30
2010,10,29,14,50,12.30
2010,10,29,14,51,12.30
2010,10,29,14,52,12.30
2010,10,29,14,53,12.40
2010,10,29,14,54,12.40
2010,10,29,14,55,12.40
2010,10,29,14,56,12.40
2010,10,29,14,57,12.50
2010,10,29,14,58,12.50
2010,10,29,14,59,12.60
2010,10,29,15,00,12.60
2010,10,29,15,01,12.60
2010,10,29,15,02,12.60
2010,10,29,15,03,12.70
2010,10,29,15,04,12.70
2010,10,29,15,05,12.70
2010,10,29,15,06,12.70
2010,10,29,15,07,12.70
2010,10,29,15,08,12.70
2010,10,29,15,09,12.70
2010,10,29,15,10,12.70
2010,10,29,15,11,12.70
2010,10,29,15,12,12.70
2010,10,29,15,13,12.70
2010,10,29,15,14,12.70
2010,10,29,15,15,12.70
2010,10,29,15,16,12.70
2010,10,29,15,17,12.70
2010,10,29,15,18,12.70
2010,10,29,15,19,12.70
2010,10,29,15,20,12.70
2010,10,29,15,21,12.70
2010,10,29,15,22,12.80
2010,10,29,15,23,12.80
2010,10,29,15,24,12.80
2010,10,29,15,25,12.80
2010,10,29,15,26,12.80
2010,10,29,15,27,12.80
2010,10,29,15,28,12.80
2010,10,29,15,29,12.80
2010,10,29,15,30,12.80
2010,10,29,15,31,12.80
2010,10,29,15,32,12.80
2010,10,29,15,33,12.80
2010,10,29,15,34,12.80
2010,10,29,15,35,12.80
2010,10,29,15,36,12.80
2010,10,29,15,37,12.70
2010,10,29,15,38,12.70
2010,10,29,15,39,12.70
2010,10,29,15,40,12.70
2010,10,29,15,41,12.70
2010,10,29,15,42,12.70
2010,10,29,15,43,12.70
2010,10,29,15,44,12.70
2010,10,29,15,45,12.70
2010,10,29,15,46,12.60
2010,10,29,15,47,12.60
2010,10,29,15,48,12.60
2010,10,29,15,49,12.60
2010,10,29,15,50,12.70
2010,10,29,15,51,12.70
2010,10,29,15,52,12.60
2010,10,29,15,53,12.60
2010,10,29,15,54,12.60
2010,10,29,15,55,12.60
2010,10,29,15,56,12.60
2010,10,29,15,57,12.60
2010,10,29,15,58,12.60
2010,10,29,15,59,12.60
2010,10,29,16,00,12.60
2010,10,29,16,01,12.60
2010,10,29,16,02,12.60
2010,10,29,16,03,12.70
2010,10,29,16,04,12.70
2010,10,29,16,05,12.70
2010,10,29,16,06,12.70
2010,10,29,16,07,12.80
2010,10,29,16,08,12.90
2010,10,29,16,09,12.90
2010,10,29,16,10,13.00
2010,10,29,16,11,13.00
2010,10,29,16,12,13.00
2010,10,29,16,13,13.10
2010,10,29,16,14,13.10
2010,10,29,16,15,13.00
2010,10,29,16,16,13.00
2010,10,29,16,17,12.90
2010,10,29,16,18,12.90
2010,10,29,16,19,12.90
2010,10,29,16,20,12.90
2010,10,29,16,21,12.90
2010,10,29,16,22,12.80
2010,10,29,16,23,12.80
2010,10,29,16,24,12.80
2010,10,29,16,25,12.70
2010,10,29,16,26,12.70
2010,10,29,16,27,12.70
2010,10,29,16,28,12.60
2010,10,29,16,29,12.60
2010,10,29,16,30,12.60
2010,10,29,16,31,12.60
2010,10,29,16,32,12.60
2010,10,29,16,33,12.60
2010,10,29,16,34,12.60
2010,10,29,16,35,12.60
2010,10,29,16,36,12.60
2010,10,29,16,37,12.60
2010,10,29,16,38,12.60
2010,10,29,16,39,12.60
2010,10,29,16,40,12.60
2010,10,29,16,41,12.60
2010,10,29,16,42,12.60
2010,10,29,16,43,12.60
2010,10,29,16,44,12.60
2010,10,29,16,45,12.60
2010,10,29,16,46,12.50
2010,10,29,16,47,12.50
2010,10,29,16,48,12.50
2010,10,29,16,49,12.50
2010,10,29,16,50,12.40
2010,10,29,16,51,12.40
2010,10,29,16,52,12.40
2010,10,29,16,53,12.40
2010,10,29,16,54,12.40
2010,10,29,16,55,12.30
2010,10,29,16,56,12.30
2010,10,29,16,57,12.30
2010,10,29,16,58,12.30
2010,10,29,16,59,12.30
2010,10,29,17,00,12.30
2010,10,29,17,01,12.20
2010,10,29,17,02,12.20
2010,10,29,17,03,12.20
2010,10,29,17,04,12.20
2010,10,29,17,05,12.20
2010,10,29,17,06,12.20
2010,10,29,17,07,12.10
2010,10,29,17,08,12.10
2010,10,29,17,09,12.10
2010,10,29,17,10,12.10
2010,10,29,17,11,12.10
2010,10,29,17,12,12.10
2010,10,29,17,13,12.00
2010,10,29,17,14,12.00
2010,10,29,17,15,12.00
2010,10,29,17,16,11.90
2010,10,29,17,17,11.90
2010,10,29,17,18,11.90
2010,10,29,17,19,11.90
2010,10,29,17,20,11.80
2010,10,29,17,21,11.80
2010,10,29,17,22,11.80
2010,10,29,17,23,11.80
2010,10,29,17,24,11.70
2010,10,29,17,25,11.70
2010,10,29,17,26,11.60
2010,10,29,17,27,11.60
2010,10,29,17,28,11.60
2010,10,29,17,29,11.50
2010,10,29,17,30,11.50
2010,10,29,17,31,11.50
2010,10,29,17,32,11.40
2010,10,29,17,33,11.40
2010,10,29,17,34,11.40
2010,10,29,17,35,11.40
2010,10,29,17,36,11.40
2010,10,29,17,37,11.40
2010,10,29,17,38,11.40
2010,10,29,17,39,11.40
2010,10,29,17,40,11.40
2010,10,29,17,41,11.40
2010,10,29,17,42,11.30
2010,10,29,17,43,11.30
2010,10,29,17,44,11.30
2010,10,29,17,45,11.30
2010,10,29,17,46,11.30
2010,10,29,17,47,11.30
2010,10,29,17,48,11.30